Location: Unspecified
(55.8762°N, 37.5216°E)
Time: 05:07:47
(UTC+03:00)

Envisat - Visible Passes

Search period start: 13 March 2026 00:00
Search period end: 23 March 2026 00:00
Orbit: 761 x 763 km, 98.4° (Epoch: 12 March)

Date Brightness Start Highest point End Pass type
(mag) Time Alt. Az. Time Alt. Az. Time Alt. Az.
13 Mar 5.1 02:01:22 10° NE 02:04:43 20° E 02:04:43 20° E visible
13 Mar 2.8 03:39:32 10° NNE 03:44:39 83° WNW 03:44:51 80° WSW visible
13 Mar 4.5 05:19:19 10° N 05:22:56 20° NW 05:24:59 16° W visible
14 Mar 5.7 01:26:14 10° ENE 01:26:36 10° E 01:26:36 10° E visible
14 Mar 3.5 03:01:46 10° NNE 03:06:43 53° E 03:06:43 53° E visible
14 Mar 3.8 04:41:01 10° N 04:45:31 33° WNW 04:46:51 28° W visible
15 Mar 4.5 02:24:16 10° NNE 02:28:36 29° E 02:28:36 29° E visible
15 Mar 3.1 04:02:57 10° N 04:07:56 58° WNW 04:08:44 51° WSW visible
15 Mar 4.8 05:43:09 10° NNW 05:45:56 15° NW 05:48:43 10° W visible
16 Mar 5.3 01:47:22 10° NE 01:50:23 16° E 01:50:29 16° E visible
16 Mar 2.9 03:25:04 10° NNE 03:30:10 79° ESE 03:30:37 72° SSE visible
16 Mar 4.3 05:04:38 10° N 05:08:38 24° NW 05:10:45 18° W visible
17 Mar 3.8 02:47:23 10° NNE 02:52:12 42° E 02:52:29 41° ESE visible
17 Mar 3.5 04:26:26 10° N 04:31:09 40° WNW 04:32:37 33° W visible
18 Mar 4.8 02:10:03 10° NE 02:14:02 23° E 02:14:22 23° E visible
18 Mar 2.9 03:48:26 10° NNE 03:53:31 72° WNW 03:54:30 56° SW visible
18 Mar 4.6 05:28:21 10° N 05:31:41 18° NW 05:34:38 11° W visible
19 Mar 5.5 01:33:42 10° ENE 01:35:40 12° E 01:36:14 12° E visible
19 Mar 3.2 03:10:37 10° NNE 03:15:40 62° ESE 03:16:22 56° SE visible
19 Mar 4.0 04:50:00 10° N 04:54:19 29° WNW 04:56:30 21° W visible
20 Mar 4.2 02:33:01 10° NNE 02:37:37 33° E 02:38:15 32° ESE visible
20 Mar 3.3 04:11:52 10° N 04:16:46 50° WNW 04:18:23 36° WSW visible
20 Mar 4.9 05:52:17 10° NNW 05:54:40 13° NW 05:57:02 10° WNW visible
21 Mar 5.1 01:55:55 10° NE 01:59:23 18° E 02:00:07 18° E visible
21 Mar 2.9 03:33:56 10° NNE 03:39:03 90° SSW 03:40:15 54° SSW visible
21 Mar 4.4 05:13:37 10° N 05:17:24 21° NW 05:20:23 13° W visible
22 Mar 3.6 02:56:12 10° NNE 03:01:08 49° E 03:02:07 43° SE visible
22 Mar 3.7 04:35:22 10° N 04:39:58 35° WNW 04:42:16 24° WSW visible
